Wind_Speed
4 4 4 4 4 3 4 4 4 4 6 7 8 9 10 11 12 13 14 15 14 15 15 15 16 16 16 17 18 19 19 18 18 19 20 21 22 23 23 23 24 25 25 26
4 4 4 4 3 3 4 5 5 6 8 8 8 9 10 11 13 14 15 14 14 14 15 15 16 17 17 18 18 18 18 18 18 19 20 21 22 22 22 23 23 23 24 24
2 3 4 4 4 4 5 7 7 8 9 9 10 9 10 12 14 14 13 13 14 15 15 15 15 17 17 17 17 18 18 18 19 20 20 20 20 21 22 22 22 22 22 23
3 3 3 4 4 5 6 7 8 9 9 10 11 12 11 12 13 13 13 13 14 14 14 15 16 17 17 17 18 19 20 19 20 20 20 19 19 20 21 22 22 22 23 23
3 3 4 5 5 6 7 8 9 9 10 11 12 14 13 13 12 12 12 12 13 15 16 17 18 18 18 19 20 21 21 20 20 19 19 19 20 21 22 22 22 22 23 23
4 4 5 5 6 8 8 9 10 10 10 11 13 14 13 13 13 13 13 13 14 15 17 19 20 20 20 20 22 22 22 21 20 20 20 20 20 21 22 22 22 22 23 23
5 6 6 6 7 8 9 11 11 11 11 12 13 13 14 13 13 14 14 14 16 17 19 19 20 21 21 22 22 22 22 21 21 21 21 20 20 21 22 22 22 22 23 23
6 7 7 7 9 10 11 12 12 13 14 13 12 13 14 14 14 15 15 15 16 17 18 19 19 20 21 22 22 22 21 21 21 20 20 21 22 22 23 22 22 22 22 23
7 7 8 9 11 12 12 12 13 14 14 14 13 13 13 14 14 15 16 16 18 18 18 19 19 20 21 21 21 20 20 20 20 20 21 21 21 21 21 21 21 21 21 22
9 9 10 11 12 12 13 13 14 14 15 15 14 14 13 14 15 15 16 17 17 18 18 19 19 20 20 20 19 18 19 19 19 19 20 21 22 22 22 21 21 21 22 22
11 12 11 12 13 13 13 14 14 15 15 16 16 15 14 14 15 16 17 17 17 18 18 19 19 20 19 18 17 18 19 20 20 20 20 21 21 21 21 21 21 21 22 22
12 13 12 13 13 14 14 15 15 15 15 16 16 15 15 16 17 17 18 18 18 18 19 19 20 20 18 18 18 18 19 19 20 20 20 20 20 21 21 20 21 21 21 21
13 13 13 13 14 15 15 15 15 15 15 15 16 16 16 17 19 18 18 18 17 18 19 20 20 19 18 17 17 18 19 20 20 20 21 20 20 20 20 20 20 21 20 20
14 14 14 14 15 15 15 15 16 16 16 16 16 17 17 18 18 18 17 18 17 18 19 19 20 19 18 17 17 18 19 20 20 20 20 19 19 19 19 20 21 20 20 21
14 15 14 15 15 15 15 15 15 16 16 17 17 17 17 18 18 18 18 18 18 18 18 20 20 19 18 17 18 19 20 20 19 19 18 19 19 18 19 20 20 20 20 21
16 16 16 16 16 16 15 15 15 16 17 17 17 17 17 18 18 18 18 19 19 18 19 19 19 19 18 18 19 19 19 19 19 19 19 19 18 18 19 19 19 20 21 22
16 17 18 17 17 17 17 16 16 17 17 17 17 17 17 17 17 18 19 19 19 19 19 19 19 19 19 19 19 19 19 20 20 19 19 19 19 19 20 20 20 21 21 22
18 18 18 18 18 18 18 17 17 17 17 17 18 18 18 18 19 19 20 20 20 19 19 19 19 20 19 19 19 19 19 20 20 20 19 19 20 20 20 20 21 21 21 21
19 20 20 20 20 19 19 18 18 17 17 18 19 19 19 19 19 19 20 20 20 19 19 19 20 20 19 19 19 19 20 20 20 20 19 19 19 20 20 20 20 20 20 20
20 21 22 21 21 21 19 19 19 19 18 18 18 19 19 19 19 19 19 19 19 19 19 19 20 20 19 19 19 19 20 21 20 20 19 19 19 19 18 18 19 19 19 19
22 22 22 22 22 22 21 20 20 20 20 19 19 19 19 19 19 20 20 19 19 18 19 19 19 20 20 20 20 20 20 20 19 19 19 19 18 18 18 18 17 18 19 18
23 22 22 22 22 21 21 21 21 21 21 20 20 20 20 20 20 19 19 19 19 18 19 19 20 20 20 20 20 19 19 19 19 19 18 18 18 17 17 17 17 18 18 17
24 23 22 22 22 22 22 22 22 22 22 21 21 21 21 21 20 20 19 19 19 19 19 19 19 19 20 20 20 19 19 18 17 17 17 17 17 16 16 17 17 18 17 17
25 24 24 23 23 23 24 23 22 22 22 22 22 22 22 21 20 20 20 19 19 19 19 19 19 19 20 20 19 19 18 17 16 16 17 17 17 16 16 17 17 17 16 16
26 26 25 25 24 23 23 24 23 23 23 24 23 23 23 22 21 21 20 20 20 20 20 19 19 19 19 19 19 19 18 16 16 15 16 16 17 17 16 16 17 16 15 15
26 26 26 25 25 25 24 24 24 24 23 23 23 23 23 23 21 21 21 21 21 21 21 20 19 19 19 20 19 18 17 16 15 15 16 16 16 16 16 17 16 15 14 14
Wind_Direction
213 218 222 225 240 264 280 286 289 289 287 290 291 284 278 283 286 290 293 297 296 298 299 298 299 300 301 300 300 301 300 297 296 297 296 293 294 294 295 296 297 297 294 294
197 195 207 222 240 265 293 305 303 294 291 295 297 296 292 293 298 303 301 300 298 296 297 299 303 305 303 301 301 303 303 300 298 298 297 298 298 297 297 298 299 298 296 297
205 214 228 247 261 277 287 299 306 301 298 300 301 303 297 299 301 304 306 305 300 297 299 303 307 307 304 303 302 304 306 305 303 301 300 302 299 299 300 299 299 299 299 298
218 227 243 258 270 289 297 299 300 298 299 304 305 312 308 307 306 310 311 309 306 302 301 304 304 305 303 301 301 304 306 306 306 305 304 305 304 303 303 303 302 301 300 299
244 245 246 258 274 284 293 298 296 299 305 307 308 310 314 314 311 312 311 308 306 304 304 307 307 307 306 303 302 304 306 306 306 304 307 308 307 305 305 305 303 300 300 300
263 265 268 277 289 293 295 298 295 298 304 308 310 310 315 318 316 315 310 308 308 307 305 305 309 309 308 307 308 308 306 305 303 303 304 305 304 304 304 304 303 300 300 301
253 265 275 277 289 295 298 302 303 305 308 311 312 313 317 317 317 316 314 312 309 308 307 306 307 307 310 309 307 309 309 304 303 303 302 303 304 303 303 303 304 303 302 302
258 264 273 282 293 300 304 306 307 309 310 312 313 315 317 315 316 315 315 316 315 313 312 310 308 308 310 309 309 309 308 306 305 304 303 303 303 302 303 305 306 305 304 302
272 272 273 283 292 297 302 308 307 306 308 310 312 314 313 315 313 313 314 315 316 317 318 318 315 314 314 314 313 311 308 307 305 304 305 307 306 306 309 311 311 310 308 305
277 274 275 279 284 290 298 305 306 308 311 311 313 317 318 317 313 314 316 317 318 321 322 322 322 319 318 317 316 314 309 308 308 310 311 310 310 310 313 313 312 312 312 311
279 277 278 281 286 292 295 299 303 305 306 309 311 318 320 319 317 315 315 317 319 322 322 324 324 323 321 319 318 317 315 313 311 311 312 312 312 313 315 315 313 313 313 314
278 281 282 285 290 292 292 295 298 302 303 305 308 315 318 319 318 317 316 316 320 321 321 322 323 324 322 320 320 318 316 316 314 311 311 312 314 315 316 317 316 315 316 316
278 282 282 285 288 290 290 292 295 297 300 302 307 313 316 316 316 316 316 318 319 321 323 323 323 324 323 321 320 319 320 321 321 319 317 315 314 316 316 317 319 319 319 317
279 281 283 286 290 290 289 289 289 293 296 299 304 308 311 312 312 312 314 317 319 322 324 325 325 325 324 321 320 319 320 322 323 322 320 318 314 314 314 317 319 320 319 318
279 282 284 286 288 288 288 288 287 290 295 297 300 303 306 308 310 313 315 317 320 322 326 326 325 327 326 323 321 321 322 323 323 324 324 323 320 317 318 319 319 318 318 319
280 283 286 286 287 286 286 287 288 290 294 296 299 303 305 307 309 313 316 317 319 323 325 326 326 327 328 327 325 324 324 326 326 324 323 322 322 321 320 319 317 317 318 319
278 283 286 287 288 287 286 286 287 291 297 299 303 306 305 305 308 312 316 317 317 320 322 323 324 325 326 327 327 327 325 325 326 325 323 323 322 322 322 323 323 322 321 321
277 280 283 287 288 287 291 288 287 291 295 299 303 306 309 307 308 312 316 316 316 317 319 320 320 322 323 324 325 325 326 326 326 326 325 325 324 324 325 326 326 325 325 324
273 276 280 285 286 286 287 287 287 289 291 297 301 304 307 309 309 311 314 315 314 315 316 317 317 318 320 322 322 324 326 326 327 327 326 327 327 326 326 327 329 328 327 329
271 273 277 281 283 284 285 284 285 287 289 295 299 303 306 310 311 311 313 315 315 317 318 316 316 317 319 321 321 323 325 326 326 327 328 328 328 329 329 330 331 331 332 333
270 272 276 280 281 282 282 283 284 286 291 295 298 302 304 306 309 312 313 314 316 318 319 318 318 318 319 320 321 322 324 326 326 326 327 328 328 330 332 332 333 334 336 338
270 272 275 278 279 280 281 282 283 285 287 291 294 297 299 301 306 309 310 312 314 316 316 316 318 319 321 322 322 322 322 324 326 327 328 329 330 331 333 335 336 337 338 340
269 271 275 277 278 279 279 280 282 283 284 288 291 291 294 298 302 306 308 311 313 314 315 315 316 319 322 323 323 322 322 323 326 328 330 331 331 332 333 335 337 338 338 341
268 269 270 273 275 277 278 278 280 282 284 286 288 290 292 296 299 303 306 310 312 312 312 312 313 315 319 320 321 322 322 322 326 329 332 333 332 332 331 331 334 335 337 339
266 267 267 269 272 273 275 276 277 280 282 283 286 289 292 295 297 299 303 308 311 311 310 309 310 312 316 318 319 320 321 321 323 327 332 333 332 332 332 331 332 333 334 335
264 266 267 267 268 269 270 273 274 276 279 280 284 287 290 292 292 295 301 306 308 307 306 305 306 309 313 315 315 316 317 317 319 324 328 329 330 332 334 334 333 334 333 333
Height
5842 5844 5844 5844 5845 5845 5845 5845 5844 5844 5843 5842 5841 5840 5840 5839 5838 5836 5835 5834 5833 5832 5830 5828 5827 5824 5822 5820 5818 5816 5814 5813 5811 5809 5808 5807 5806 5804 5803 5801 5799 5797 5794 5792
5843 5843 5844 5844 5844 5844 5844 5844 5843 5843 5842 5841 5839 5839 5838 5837 5835 5834 5832 5831 5830 5828 5827 5825 5823 5820 5818 5816 5814 5812 5810 5808 5806 5804 5802 5801 5799 5798 5796 5794 5792 5790 5788 5785
5842 5844 5843 5844 5844 5843 5843 5843 5842 5842 5840 5839 5838 5837 5836 5835 5833 5831 5830 5828 5827 5825 5824 5822 5820 5817 5814 5812 5810 5808 5806 5803 5801 5799 5797 5795 5793 5792 5790 5788 5786 5784 5781 5779
5842 5843 5843 5843 5843 5843 5842 5842 5841 5840 5839 5838 5837 5835 5834 5832 5830 5829 5827 5826 5825 5823 5821 5819 5816 5813 5811 5808 5806 5804 5801 5799 5796 5794 5792 5790 5788 5786 5785 5783 5780 5778 5776 5773
5842 5842 5842 5842 5842 5842 5841 5840 5839 5838 5837 5836 5835 5833 5833 5830 5828 5827 5825 5824 5822 5820 5818 5815 5813 5810 5807 5805 5802 5800 5797 5794 5791 5789 5787 5785 5783 5781 5780 5777 5774 5772 5770 5768
5841 5841 5841 5841 5841 5840 5839 5839 5838 5837 5836 5835 5833 5832 5830 5828 5826 5825 5823 5821 5820 5817 5815 5812 5809 5806 5803 5801 5798 5795 5793 5790 5787 5785 5782 5780 5779 5777 5775 5772 5769 5767 5765 5763
5841 5841 5840 5840 5840 5839 5838 5838 5836 5835 5834 5833 5831 5829 5829 5826 5824 5822 5821 5819 5817 5814 5812 5809 5806 5803 5800 5797 5794 5791 5788 5785 5783 5780 5778 5776 5774 5772 5770 5767 5764 5762 5760 5757
5839 5840 5839 5838 5838 5837 5836 5835 5835 5833 5831 5830 5829 5827 5826 5823 5821 5819 5818 5816 5814 5811 5808 5805 5801 5798 5796 5793 5789 5786 5783 5781 5778 5776 5774 5771 5769 5766 5764 5762 5759 5757 5754 5752
5838 5838 5837 5837 5836 5835 5834 5833 5832 5831 5829 5828 5826 5825 5823 5821 5819 5816 5814 5812 5810 5807 5804 5801 5798 5794 5791 5788 5785 5782 5779 5776 5774 5772 5769 5767 5764 5762 5760 5757 5754 5751 5749 5746
5836 5836 5836 5835 5834 5834 5833 5831 5830 5828 5826 5824 5824 5822 5821 5818 5816 5814 5812 5809 5807 5804 5801 5798 5794 5791 5787 5784 5781 5778 5775 5773 5770 5768 5765 5762 5760 5758 5755 5752 5749 5746 5744 5741
5833 5833 5833 5832 5832 5831 5830 5829 5827 5825 5823 5822 5820 5822 5819 5816 5814 5812 5809 5807 5804 5801 5798 5795 5791 5788 5784 5781 5778 5774 5772 5769 5766 5763 5761 5758 5756 5753 5750 5747 5745 5742 5739 5736
5831 5830 5830 5830 5829 5828 5827 5826 5825 5823 5822 5820 5818 5821 5816 5814 5811 5809 5806 5804 5801 5798 5795 5792 5788 5785 5781 5778 5775 5772 5768 5765 5762 5759 5757 5754 5752 5749 5746 5743 5740 5737 5734 5731
5828 5827 5827 5827 5828 5826 5824 5823 5822 5820 5819 5818 5816 5818 5813 5811 5808 5806 5803 5801 5798 5795 5792 5788 5785 5781 5777 5774 5771 5768 5765 5762 5759 5756 5752 5750 5747 5745 5742 5740 5736 5733 5730 5727
5825 5824 5824 5824 5823 5822 5821 5820 5818 5818 5816 5815 5814 5813 5810 5808 5805 5803 5801 5798 5795 5792 5788 5785 5781 5777 5774 5771 5768 5765 5762 5758 5755 5752 5748 5746 5743 5741 5738 5735 5732 5729 5726 5722
5821 5821 5820 5820 5819 5818 5818 5817 5816 5814 5813 5812 5811 5809 5808 5805 5802 5800 5797 5795 5792 5789 5785 5781 5778 5774 5771 5768 5765 5762 5759 5755 5752 5749 5745 5742 5739 5737 5734 5731 5728 5725 5721 5718
5818 5817 5817 5817 5816 5815 5814 5814 5812 5811 5810 5809 5807 5806 5804 5802 5799 5797 5794 5791 5788 5785 5782 5778 5775 5771 5768 5765 5762 5758 5755 5752 5749 5746 5742 5739 5736 5733 5730 5727 5724 5721 5717 5714
5814 5814 5813 5813 5812 5811 5810 5810 5809 5808 5807 5805 5804 5803 5800 5798 5796 5793 5791 5788 5785 5781 5779 5775 5772 5768 5765 5762 5759 5756 5752 5749 5746 5743 5739 5736 5733 5730 5726 5723 5720 5716 5713 5710
5810 5810 5809 5808 5808 5807 5809 5806 5805 5804 5803 5801 5800 5798 5796 5794 5792 5789 5787 5784 5781 5778 5775 5772 5768 5765 5762 5759 5756 5752 5750 5746 5743 5740 5736 5733 5729 5726 5723 5720 5716 5712 5709 5706
5806 5805 5804 5804 5802 5802 5803 5801 5800 5800 5799 5798 5796 5794 5792 5790 5788 5785 5783 5780 5777 5774 5771 5768 5765 5762 5759 5756 5753 5749 5746 5743 5740 5737 5733 5730 5726 5723 5720 5716 5713 5709 5706 5702
5800 5800 5800 5798 5798 5797 5799 5797 5796 5796 5795 5794 5792 5790 5788 5786 5784 5782 5779 5776 5773 5771 5768 5765 5761 5758 5755 5753 5749 5746 5743 5740 5737 5733 5730 5727 5724 5720 5717 5713 5710 5707 5703 5699
5795 5794 5794 5793 5792 5792 5793 5791 5791 5791 5791 5789 5786 5785 5783 5781 5780 5778 5775 5772 5770 5767 5764 5761 5758 5755 5752 5749 5746 5743 5740 5737 5733 5730 5727 5724 5721 5718 5714 5711 5708 5704 5700 5697
5788 5788 5788 5788 5787 5789 5787 5786 5786 5786 5784 5783 5781 5780 5778 5777 5775 5773 5771 5768 5766 5763 5760 5757 5754 5751 5748 5745 5742 5739 5736 5733 5730 5727 5724 5721 5718 5715 5712 5709 5706 5702 5698 5695
5782 5783 5782 5782 5783 5782 5780 5780 5780 5779 5778 5777 5776 5775 5774 5772 5770 5768 5766 5764 5761 5759 5756 5753 5751 5748 5745 5742 5738 5735 5733 5730 5727 5724 5721 5718 5715 5712 5709 5706 5703 5700 5696 5693
5775 5775 5775 5775 5775 5775 5774 5774 5773 5772 5772 5771 5770 5769 5768 5767 5765 5763 5761 5759 5757 5754 5752 5749 5747 5744 5742 5739 5735 5732 5729 5727 5724 5722 5719 5716 5713 5710 5707 5704 5701 5698 5695 5691
5768 5768 5768 5768 5769 5768 5768 5767 5767 5767 5766 5765 5764 5763 5762 5760 5759 5758 5756 5754 5751 5749 5747 5745 5743 5740 5738 5735 5732 5729 5726 5724 5721 5719 5716 5714 5711 5708 5705 5702 5699 5695 5692 5689
5759 5760 5760 5761 5761 5761 5761 5761 5761 5760 5760 5759 5758 5757 5755 5754 5753 5752 5750 5748 5746 5744 5742 5740 5738 5736 5734 5731 5729 5726 5723 5721 5719 5716 5714 5711 5709 5706 5703 5700 5696 5693 5690 5688